FW6605 Weather Reports


Display with metric or nautical units.
time (UTC)temp
F
wind
direction
speed
MPH
gust
MPH
rain 1hr
in
rain 24hr
in
rain mn
in
humidity
%
barometer
mb
20260505173054 41 360 8.0 13.0 0.00 0.00 0.00 85 1015.1
20260505171556 41 360 8.0 13.0 0.00 0.00 0.00 84 1015.2
20260505170055 41 360 8.0 13.0 0.00 0.00 0.00 83 1015.3
20260505164606 41 360 11.0 14.0 0.00 0.00 0.00 80 1015.4
20260505163056 41 360 8.0 13.0 0.00 0.00 0.00 79 1015.2
20260505161557 41 360 10.0 16.0 0.00 0.00 0.00 79 1015.3
20260505153057 42 360 10.0 15.0 0.00 0.00 0.00 80 1015.2
20260505151556 42 360 11.0 15.0 0.00 0.00 0.00 80 1015.2
20260505124553 45 360 3.0 11.0 0.00 0.00 0.00 74 1014.0
20260505123101 45 360 1.0 6.0 0.00 0.00 0.00 74 1013.9
20260505121554 45 360 3.0 8.0 0.00 0.00 0.00 73 1013.6
20260505120058 46 360 1.0 4.0 0.00 0.00 0.00 73 1013.5
20260505114600 47 360 2.0 8.0 0.00 0.00 0.00 68 1013.0
20260505113057 46 0 0.0 2.0 0.00 0.00 0.00 71 1012.8
20260505111600 46 0 0.0 0.0 0.00 0.00 0.00 73 1012.9
20260505101608 47 0 0.0 1.0 0.00 0.00 0.00 72 1013.1
20260505100104 45 0 0.0 1.0 0.00 0.00 0.00 78 1013.0
20260505094557 45 0 0.0 0.0 0.00 0.00 0.00 77 1013.2
20260505093104 46 0 0.0 0.0 0.00 0.00 0.00 74 1013.2
20260505091556 46 0 0.0 0.0 0.00 0.00 0.00 73 1013.2
20260505084606 48 0 0.0 2.0 0.00 0.00 0.00 71 1013.1
20260505083059 49 0 0.0 2.0 0.00 0.00 0.00 70 1013.3
20260505081623 49 0 0.0 3.0 0.00 0.00 0.00 70 1013.2
20260505080103 49 360 0.0 4.0 0.00 0.00 0.00 70 1013.1
20260505074559 49 360 6.0 9.0 0.00 0.00 0.00 68 1013.1
20260505073104 50 360 6.0 12.0 0.00 0.00 0.00 69 1013.2
20260505071557 50 360 6.0 11.0 0.00 0.00 0.00 69 1013.1
20260505070059 51 360 7.0 10.0 0.00 0.00 0.00 67 1012.9
20260505064554 51 360 5.0 9.0 0.00 0.00 0.00 67 1012.9
20260505063106 52 360 4.0 9.0 0.00 0.00 0.00 67 1013.2
20260505061554 52 360 5.0 11.0 0.00 0.00 0.00 65 1013.0
20260505054556 53 360 4.0 10.0 0.00 0.00 0.00 64 1013.4
20260505053054 53 360 1.0 5.0 0.00 0.00 0.00 64 1013.2
20260505051553 53 360 1.0 6.0 0.00 0.00 0.00 64 1013.2
20260505041558 54 360 10.0 14.0 0.00 0.00 0.00 59 1012.8
20260505040057 54 360 10.0 14.0 0.00 0.00 0.00 59 1012.5
20260505034555 54 360 11.0 15.0 0.00 0.00 0.00 58 1012.3
20260505033054 54 360 11.0 16.0 0.00 0.00 0.00 57 1012.1
20260505031556 55 360 12.0 20.0 0.00 0.00 0.00 55 1012.2
20260505030106 55 360 12.0 23.0 0.00 0.00 0.00 58 1011.7
20260505024555 56 360 16.0 22.0 0.00 0.00 0.00 52 1011.5
20260505023101 56 360 17.0 27.0 0.00 0.00 0.00 53 1010.9
20260505021554 56 360 20.0 29.0 0.00 0.00 0.00 53 1011.0
20260505020056 57 360 21.0 30.0 0.00 0.00 0.00 51 1010.9
20260505014605 58 360 21.0 30.0 0.00 0.00 0.00 48 1010.5
20260505013057 60 360 27.0 34.0 0.00 0.00 0.00 43 1009.8
20260505011557 62 360 15.0 22.0 0.00 0.00 0.00 38 1009.3
20260505010117 62 360 9.0 17.0 0.00 0.00 0.00 39 1008.9
20260505004557 62 360 13.0 22.0 0.00 0.00 0.00 39 1008.6
20260505003055 63 360 16.0 25.0 0.00 0.00 0.00 38 1008.6
20260505001555 64 360 16.0 26.0 0.00 0.00 0.00 34 1008.6
20260505000056 65 360 11.0 16.0 0.00 0.00 0.00 32 1008.7
20260504234557 66 360 10.0 16.0 0.00 0.00 0.00 32 1008.5
20260504233057 67 360 10.0 25.0 0.00 0.00 0.00 30 1008.6
20260504231557 67 360 16.0 22.0 0.00 0.00 0.00 29 1008.3
20260504230058 67 360 20.0 27.0 0.00 0.00 0.00 31 1008.4
20260504224559 68 360 19.0 28.0 0.00 0.00 0.00 30 1008.0
20260504223103 68 360 11.0 24.0 0.00 0.00 0.00 27 1008.0
20260504221606 71 247 17.0 26.0 0.00 0.00 0.00 23 1007.8
20260504220059 72 212 17.0 27.0 0.00 0.00 0.00 23 1007.7
20260504214605 72 229 16.0 27.0 0.00 0.00 0.00 23 1007.6
20260504213111 73 225 16.0 22.0 0.00 0.00 0.00 22 1007.8
20260504211553 74 232 18.0 26.0 0.00 0.00 0.00 22 1007.9
20260504210058 75 253 19.0 32.0 0.00 0.00 0.00 21 1008.3
20260504204606 75 191 13.0 25.0 0.00 0.00 0.00 19 1008.3
20260504203055 74 227 13.0 21.0 0.00 0.00 0.00 21 1008.5
20260504201557 72 281 5.0 10.0 0.00 0.00 0.00 19 1008.9
20260504200100 72 317 3.0 10.0 0.00 0.00 0.00 18 1008.8
20260504194559 72 28 2.0 9.0 0.00 0.00 0.00 17 1008.9
20260504193102 73 54 7.0 14.0 0.00 0.00 0.00 16 1008.9
20260504191602 72 59 4.0 10.0 0.00 0.00 0.00 17 1009.2
20260504190056 72 9 7.0 14.0 0.00 0.00 0.00 18 1009.4
20260504184555 72 243 6.0 14.0 0.00 0.00 0.00 18 1009.6
20260504183056 73 13 5.0 11.0 0.00 0.00 0.00 18 1009.9
20260504181600 73 254 6.0 13.0 0.00 0.00 0.00 18 1010.0
20260504174553 71 0 1.0 8.0 0.00 0.00 0.00 19 1010.2